Dewpoint
21 16 14 14 13 11 5 7 7 5 13 13 12 17 14 17 24 23 26 28 41 51 58 63 65 61 67 68 68 67 69 67 66 66 64 63 62 61 63 60 58 57 54 51
19 17 15 14 12 10 8 8 10 11 11 14 15 15 15 17 17 19 20 41 50 55 58 58 58 59 67 68 69 70 70 70 68 67 66 65 64 63 62 61 57 55 53 51
17 17 16 14 13 12 14 12 11 8 10 15 15 15 15 12 15 18 27 42 48 59 55 54 54 64 65 65 66 66 67 66 67 66 65 64 64 63 62 59 56 53 51 49
16 16 16 15 12 15 13 9 6 6 6 6 13 11 16 12 17 20 35 44 48 49 58 59 60 60 61 61 64 64 64 63 64 64 63 62 61 59 57 54 54 50 49 50
15 15 15 16 15 16 14 12 12 9 7 9 8 9 13 15 21 32 45 47 48 51 53 55 55 56 57 59 60 62 61 61 61 61 60 59 58 54 53 50 50 51 52 51
15 15 16 16 17 16 13 14 17 17 13 10 11 11 10 20 24 40 44 44 45 49 50 51 52 53 54 56 58 59 58 58 58 57 56 55 54 52 50 51 50 47 46 46
16 13 14 14 14 16 13 16 17 15 12 10 12 11 13 24 39 43 43 43 45 47 49 50 50 51 53 55 55 56 56 55 55 54 53 52 51 50 50 48 46 47 43 44
14 13 13 16 15 14 13 16 17 13 13 14 16 12 18 28 40 44 44 44 45 46 47 48 49 51 52 53 53 54 54 53 52 51 50 50 50 47 47 46 47 46 43 44
11 13 16 14 16 14 15 18 18 19 19 18 20 27 31 35 37 41 43 43 44 45 46 48 49 51 52 52 52 52 51 50 49 49 50 49 48 46 46 46 46 44 45 43
18 17 16 15 13 16 16 20 18 18 17 19 18 23 23 33 36 38 41 43 45 46 47 49 50 51 51 51 51 50 49 48 47 46 46 45 46 44 45 45 45 46 46 45
17 22 16 15 12 14 15 14 18 22 20 19 17 21 34 33 34 36 39 44 46 46 47 49 51 50 50 50 49 49 47 46 46 45 45 45 43 43 44 45 44 45 46 45
17 22 19 19 14 14 13 15 16 20 22 23 25 26 27 34 33 36 35 44 46 45 47 49 49 50 49 48 48 47 46 44 44 42 43 44 43 43 44 44 44 45 45 45
23 22 20 21 22 17 14 13 17 23 28 26 24 25 31 31 33 35 35 43 45 45 46 47 48 49 49 48 47 47 44 43 42 41 43 43 45 45 46 45 44 45 45 44
27 27 24 24 22 19 18 13 14 23 23 24 24 25 31 35 37 40 36 44 44 45 46 47 48 49 48 48 47 46 44 42 43 41 41 43 45 45 45 45 43 43 44 44
27 29 25 21 24 24 20 20 19 19 21 23 24 26 34 41 43 44 51 44 45 45 47 48 49 50 49 49 47 45 45 44 42 41 40 42 43 44 43 44 44 43 43 43
29 27 27 22 23 23 22 22 23 21 18 20 23 26 36 44 43 45 45 42 45 46 47 48 49 50 49 49 46 45 46 43 40 39 41 41 41 40 41 41 43 43 43 43
32 29 29 25 24 23 21 20 19 24 22 22 23 38 42 40 42 38 37 39 46 48 48 49 50 51 51 49 47 47 45 41 40 42 40 38 38 38 40 40 41 42 42 44
31 35 31 29 27 22 22 22 20 20 21 24 33 34 37 41 42 41 38 36 46 48 49 50 51 51 50 48 48 45 40 39 42 40 38 37 37 37 39 41 42 42 44 43
37 37 29 29 27 25 24 29 26 21 22 27 31 33 35 42 44 45 45 47 49 50 51 51 52 51 49 48 44 42 38 43 39 37 37 37 37 37 38 39 41 42 43 43
42 42 35 29 28 26 31 39 39 30 27 32 33 36 35 38 36 46 49 50 50 51 52 52 51 50 48 45 41 40 42 37 38 38 38 38 38 39 40 41 40 43 43 42
41 42 40 32 30 36 41 43 42 29 31 34 33 34 36 45 48 50 50 51 51 52 51 50 49 47 45 41 42 38 37 41 39 38 38 38 39 39 39 40 40 41 42 41
37 39 35 33 32 33 43 41 36 40 36 34 45 49 50 50 50 50 50 51 50 50 48 47 46 44 42 40 39 38 39 39 39 37 38 39 39 38 37 38 41 40 41 42
36 38 36 31 30 44 44 42 43 43 38 36 44 48 48 48 48 49 50 49 49 47 46 44 43 42 39 39 39 41 39 39 39 40 41 41 41 39 39 39 40 40 34 36
33 35 34 35 40 40 48 48 46 46 37 38 43 47 46 47 48 48 48 48 47 45 44 42 41 38 38 38 41 39 37 39 41 41 41 39 39 34 38 37 37 35 33 34
40 37 34 35 38 44 45 45 45 40 39 42 42 43 45 46 47 47 47 46 45 44 43 41 38 37 38 42 39 38 38 40 40 41 41 39 36 36 38 37 36 35 37 35
47 47 40 37 43 47 48 45 41 41 41 41 41 42 44 45 46 46 46 45 45 44 41 38 38 41 40 40 38 37 39 39 40 41 39 38 34 35 33 33 36 33 34 34
Wind_Speed
18 16 21 21 21 24 26 17 14 17 14 13 17 12 16 15 14 10 14 16 13 25 20 35 41 46 26 12 9 14 14 12 12 14 10 10 6 5 9 8 11 9 8 9
20 23 22 22 20 20 20 13 19 17 7 9 9 14 17 14 12 12 10 16 19 25 27 37 20 23 9 21 20 20 18 16 18 14 10 7 6 6 4 10 8 5 4 5
24 24 25 22 21 12 13 15 18 19 15 10 9 16 23 23 16 4 2 11 17 21 21 22 24 12 22 22 19 19 17 17 16 13 12 8 6 5 1 7 4 1 3 4
24 26 20 17 20 12 18 18 18 19 19 19 20 20 21 26 19 13 6 10 13 13 23 22 15 13 17 17 16 16 16 15 13 14 3 2 7 6 3 2 7 1 4 4
26 27 24 17 18 14 20 17 16 20 20 19 23 16 17 14 20 16 15 10 7 12 19 18 15 14 14 14 15 17 18 17 14 14 12 6 8 7 6 4 6 7 7 10
26 25 21 24 19 19 18 13 15 10 15 21 22 23 24 17 20 21 16 11 9 11 15 16 16 15 15 15 17 14 13 12 11 11 12 11 9 7 7 8 9 11 10 9
25 27 23 15 14 18 17 13 14 17 19 22 23 24 22 15 28 26 22 17 14 13 14 14 14 14 14 14 13 12 11 10 9 10 10 9 5 5 4 6 8 9 7 7
26 25 27 16 22 21 21 19 19 15 17 13 18 22 16 19 23 26 23 20 18 17 16 15 14 14 14 13 12 12 11 11 10 10 9 6 6 6 7 7 7 10 11 11
25 28 20 31 18 25 21 22 24 25 25 20 6 11 12 17 17 23 23 21 21 18 17 16 16 15 14 12 12 12 12 10 9 8 7 6 5 4 5 6 7 10 10 11
27 27 21 22 26 23 24 21 20 17 17 19 17 20 16 23 20 20 21 20 20 19 18 17 15 15 14 13 10 10 11 9 8 6 5 4 5 6 6 6 8 9 10 11
30 25 21 20 19 24 18 24 21 15 16 18 17 4 16 17 15 19 21 23 19 19 19 18 16 15 14 13 12 10 9 9 8 4 6 5 4 6 4 8 8 7 9 11
28 15 19 26 25 24 25 25 25 18 18 16 14 4 1 20 20 23 19 26 24 20 18 17 16 15 14 13 11 8 7 6 8 5 4 4 4 4 4 3 7 8 9 11
23 22 19 23 20 16 19 28 19 16 17 17 16 16 8 3 14 19 18 28 24 22 19 17 15 13 12 11 10 8 5 7 5 4 3 2 1 3 6 5 6 8 10 12
16 16 22 21 23 20 25 23 23 20 21 21 23 19 9 12 3 9 11 28 23 18 18 16 14 12 11 10 9 8 6 4 4 2 0 2 5 5 6 5 7 8 8 9
6 18 21 26 29 23 21 25 25 25 18 17 14 9 9 4 10 19 33 17 21 17 18 17 14 12 10 9 8 7 6 2 2 3 2 3 3 4 5 5 5 7 7 8
17 17 20 25 26 27 26 23 28 25 25 25 21 19 15 19 17 23 30 13 22 18 18 16 14 13 11 10 8 7 5 3 1 2 3 3 3 5 6 5 6 6 6 8
21 20 22 28 27 26 30 27 20 19 24 21 21 21 15 15 20 11 3 3 18 20 17 16 13 12 11 10 8 6 4 1 2 4 5 4 4 5 6 7 7 8 6 8
24 22 20 22 25 33 22 24 23 22 16 16 19 15 23 17 12 10 5 5 13 16 16 16 13 12 13 11 8 5 3 2 5 6 4 5 6 8 8 9 8 10 10 10
27 23 21 23 27 23 23 7 15 22 24 14 15 12 18 18 13 12 7 11 15 16 15 14 14 15 13 11 8 5 4 7 5 4 5 7 8 8 10 10 10 10 10 11
12 8 23 23 25 27 9 5 19 3 15 10 15 24 27 19 13 14 13 15 16 16 15 16 16 15 12 10 6 6 5 1 3 6 6 7 8 9 9 11 7 9 12 14
18 9 33 27 18 2 5 8 14 11 3 12 15 9 7 12 17 19 17 16 16 16 16 17 15 13 11 9 6 4 3 4 5 5 5 7 7 7 10 8 9 11 13 15
12 2 25 23 18 11 9 12 16 7 8 13 22 24 28 25 23 20 18 18 17 18 17 15 14 12 9 8 7 3 2 1 3 3 6 7 8 8 9 9 11 13 15 12
21 18 25 12 17 38 23 13 16 14 14 11 21 23 23 23 21 20 18 18 17 16 15 14 13 12 10 5 4 5 3 2 3 5 6 7 8 9 8 12 12 12 11 9
32 19 6 7 17 21 22 18 14 12 16 18 20 21 20 21 20 19 18 17 16 15 13 13 13 10 9 6 6 1 1 3 6 7 9 8 9 8 13 12 13 8 8 6
8 20 26 15 21 25 21 21 19 20 18 20 18 16 20 20 19 18 18 17 16 14 13 12 10 9 8 8 4 1 4 3 6 8 9 7 10 12 14 9 11 7 8 7
11 9 14 4 19 20 9 12 20 19 17 16 15 17 18 19 19 19 17 16 15 14 13 11 10 9 8 6 4 2 3 4 5 8 10 9 10 11 11 10 8 9 9 6
Wind_Direction
206 221 226 232 231 248 270 301 267 249 183 180 242 231 256 254 219 245 246 240 354 47 46 50 355 0 50 59 77 148 159 157 124 133 159 90 100 107 75 89 62 43 17 1
225 224 237 241 249 244 257 277 280 292 198 169 236 270 267 250 267 195 238 44 45 77 91 112 260 179 187 72 69 43 66 65 63 73 65 46 104 116 187 91 96 62 2 327
226 227 218 244 248 238 264 263 259 273 279 177 215 262 272 261 237 187 47 34 52 110 119 139 165 237 71 70 72 74 73 69 76 95 100 102 118 127 214 103 107 5 39 346
232 242 257 212 242 233 241 245 255 266 263 263 203 249 241 240 206 207 129 69 37 87 143 146 127 90 76 77 74 81 75 61 55 42 98 210 76 61 61 326 101 284 237 273
230 232 239 213 246 229 253 258 281 234 261 269 269 271 259 276 169 169 106 84 62 69 93 97 95 95 97 95 84 72 71 68 65 59 48 37 34 46 100 16 338 265 228 223
243 245 224 245 221 241 248 243 263 282 253 251 250 264 264 178 181 128 113 121 126 100 94 96 98 98 99 98 91 77 73 71 67 70 63 59 55 41 30 1 315 17 328 1
235 240 246 216 239 228 227 225 241 235 235 242 239 236 251 112 132 138 143 146 136 126 115 115 117 113 110 108 105 109 105 102 95 85 74 68 62 66 33 4 0 325 339 338
228 228 233 186 226 230 212 225 235 233 225 251 255 233 214 128 117 135 145 147 143 146 136 135 128 130 123 118 109 114 121 120 107 94 83 70 33 34 20 24 0 315 352 340
237 233 226 223 205 234 200 219 243 265 285 288 233 75 115 126 140 141 145 152 151 139 136 137 134 123 126 127 127 125 117 113 114 121 118 98 52 38 31 0 348 3 355 337
244 262 247 223 205 221 247 215 222 238 258 272 256 188 224 164 157 158 158 156 146 141 145 140 140 132 131 127 124 126 126 124 111 99 73 72 81 47 21 9 353 0 352 330
230 252 258 219 200 213 218 241 253 237 236 237 270 178 101 140 181 172 169 154 153 155 147 149 139 138 133 144 135 133 132 134 124 115 84 79 26 25 29 18 8 351 339 331
213 238 239 254 215 214 234 219 232 243 240 258 275 209 234 190 190 181 192 156 154 156 149 147 144 143 148 138 135 124 118 121 98 94 74 69 26 358 14 346 356 351 349 341
209 220 229 254 260 215 220 243 224 232 263 269 262 267 146 129 182 179 194 147 146 147 150 149 146 149 153 141 141 141 145 95 89 35 89 86 300 330 345 356 351 350 0 339
240 213 217 235 240 211 215 229 238 221 214 232 245 268 194 180 147 31 234 134 140 151 150 149 149 156 147 147 153 141 116 106 57 174 271 265 28 337 298 331 17 336 311 323
193 223 215 227 253 265 210 223 229 234 235 247 253 251 146 86 79 68 321 113 141 159 155 148 155 153 148 150 148 142 114 98 233 293 325 344 282 331 330 300 281 314 320 334
220 227 225 235 236 248 258 235 215 223 230 224 230 255 172 147 146 184 219 167 157 156 158 157 158 156 162 164 169 151 132 217 22 287 281 282 308 324 322 299 290 290 324 333
204 203 214 233 236 250 249 247 243 221 225 222 223 106 67 163 190 187 94 6 151 153 155 151 156 154 153 151 137 142 183 161 241 261 283 312 308 313 325 333 315 300 312 310
209 205 211 225 224 236 244 240 232 249 243 224 110 141 161 115 81 75 32 323 123 131 136 138 149 138 128 123 126 138 167 211 242 267 303 326 341 339 338 323 326 356 335 327
203 215 212 224 231 240 237 243 285 232 233 169 120 127 98 106 100 71 51 76 94 110 118 128 131 122 125 133 144 153 192 223 256 310 333 342 339 341 336 334 357 337 325 311
227 287 207 213 237 235 208 326 327 259 213 152 168 165 163 155 188 122 97 94 100 105 112 117 118 125 129 129 147 180 218 261 301 6 340 327 325 328 334 306 335 330 311 297
183 212 245 220 229 219 105 12 16 233 214 46 149 135 134 101 107 122 118 116 116 119 121 122 127 133 137 148 168 181 212 42 8 320 319 309 332 335 302 0 327 301 292 290
188 70 225 221 218 219 173 119 171 219 91 93 94 101 103 110 119 125 126 125 127 128 129 137 134 131 141 160 185 136 76 279 332 330 305 330 331 322 318 322 295 290 286 300
187 165 230 280 238 147 176 170 119 143 138 137 117 119 122 126 129 133 133 136 131 142 143 136 137 150 146 139 124 179 101 1 350 313 323 320 320 319 334 302 304 304 346 16
211 218 217 210 124 133 114 84 76 316 137 125 117 125 133 131 134 136 138 135 145 140 139 146 144 142 148 154 186 234 66 26 326 349 343 346 314 336 301 297 292 318 315 336
24 188 198 234 156 125 138 151 169 189 119 123 129 137 134 138 139 142 139 147 140 148 145 144 150 143 159 183 155 166 53 355 350 350 310 346 350 322 306 309 310 308 46 64
1 3 265 179 136 125 131 168 168 136 125 127 137 125 136 142 143 140 143 142 147 145 145 142 151 176 144 150 142 119 55 7 347 334 348 341 323 303 307 322 321 62 116 117